Notices

What's New in latest Release from April 7th, 2021:

- Updated Glossary, including Speed of Maximum Gust, and Total Hourly Precipitation

- Updated national and regional climate services offices contacts and prices information

- Addition of station inventory lists for 1981-2010, 1971-2000, and 1961-1990 Normals.

If you haven't already, please take our survey and provide feedback about our website: https://eccc.sondage-survey.ca/f/LanguageSelection.aspx?s=442ca660-fcf1-47c0-95a9-59707d6fd709

Hourly Data Report for June 05, 2004

SHERBROOKE A
QUEBEC

45°26'00.000" N
71°41'00.000" W
241.40 m
7028124
71610
YSC

Download Data

Hourly Data (June 2004)
Hourly Data Report for June 5, 2004
TIME
LST
Temp Definition
°C
Dew Point Definition
°C
Rel Hum Definition
%
Precip. Amount Definition
mm

Wind Dir Definition
10's deg

Wind Spd Definition
km/h
Visibility Definition
km
Stn Press Definition
kPa
Hmdx Definition


Wind Chill Definition


Weather Definition


00:00 5.1 3.9 92   10 6 15.0 99.36      
01:00 5.2 3.8 91   11 7 15.0 99.38      
02:00 4.8 3.4 91   8 9 15.0 99.39      
03:00 3.8 2.5 91   11 6 15.0 99.42      
04:00 3.4 2.0 91   8 7 15.0 99.43      
05:00 5.1 3.7 91   9 4 15.0 99.47      
06:00 7.4 5.3 87   7 6 15.0 99.49      
07:00 10.4 6.4 76   9 4 24.1 99.50     Mainly Clear
08:00 14.1 7.9 66     0 24.1 99.50     Mainly Clear
09:00 16.7 8.3 58     0 24.1 99.48     Mainly Clear
10:00 18.9 7.5 47   8 4 24.1 99.45     Mainly Clear
11:00 20.2 6.2 40   2 6 24.1 99.41     Mainly Clear
12:00 21.6 7.1 39   23 13 24.1 99.36     Mainly Clear
13:00 22.1 8.6 42   26 7 24.1 99.31     Mainly Clear
14:00 21.8 8.0 41   35 4 24.1 99.27     Mainly Clear
15:00 22.3 8.4 41     0 24.1 99.24     Mostly Cloudy
16:00 21.9 9.4 45   8 4 24.1 99.17     Mainly Clear
17:00 21.9 8.7 43   33 6 15.0 99.13      
18:00 22.3 8.2 40   30 6 15.0 99.13      
19:00 19.7 10.0 53     0 15.0 99.12      
20:00 14.2 9.1 71   11 6 15.0 99.11      
21:00 13.0 9.6 80   14 7 15.0 99.15      
22:00 11.2 8.2 82   13 7 15.0 99.21      
23:00 10.4 7.4 82   16 7 15.0 99.24      

Notes on Data Quality.

Legend

  • E = Estimated
  • M = Missing
  • NA = Not Available*
  • [empty] = Indicates an unobserved value
Date modified: